{"data":{"norad_id":41019,"intl_designator":"2015-062A","name":"GPS BIIF-11 (PRN 10)","alt_names":[],"object_type":"PAYLOAD","status":"ACTIVE","operator":null,"country":"US","launch_date":"2015-10-31","launch_site_code":"AFETR","launch_vehicle":null,"mission":null,"orbit_class":"UNKNOWN","rcs_meters":15.9174,"size_class":null,"mass_kg":null,"dimensions":null,"purposes":["earth_obs","nav"],"wikipedia_slug":null,"has_3d_model":false,"image_url":null,"decayed_at":null,"tle_current":{"epoch":"2026-09-19T12:11:21.299424Z","epoch_age_seconds":100057,"freshness":"FRESH","line1":"1 41019U 15062A   26262.50788541 -.00000072  00000+0  00000+0 0  9993","line2":"2 41019  57.0198  27.1858 0116217 231.1367 127.8323  2.00567094 79723","mean_motion":2.00567094,"eccentricity":0.0116217,"inclination_deg":57.0198,"raan_deg":27.1858,"arg_perigee_deg":231.1367,"mean_anomaly_deg":127.8323,"bstar":0,"rev_number":7972,"period_min":717.96423395355,"perigee_km":19873.229891477,"apogee_km":20490.575518354,"semimajor_km":26560.039704915,"source":"CELESTRAK","updated_at":"2026-09-20T09:00:46.118925Z"}}}